Year,Month,Day,Hour,Minute,Value (Times are PST for windgust in km/hr)
2015,09,14,00,00,12.90
2015,09,14,00,01,9.60
2015,09,14,00,02,12.90
2015,09,14,00,03,6.40
2015,09,14,00,04,6.40
2015,09,14,00,05,6.40
2015,09,14,00,06,8.10
2015,09,14,00,07,12.90
2015,09,14,00,08,8.10
2015,09,14,00,09,6.40
2015,09,14,00,10,12.90
2015,09,14,00,11,11.30
2015,09,14,00,12,12.90
2015,09,14,00,13,14.50
2015,09,14,00,14,11.30
2015,09,14,00,15,11.30
2015,09,14,00,16,9.60
2015,09,14,00,17,12.90
2015,09,14,00,18,14.50
2015,09,14,00,19,17.70
2015,09,14,00,20,16.10
2015,09,14,00,21,14.50
2015,09,14,00,22,14.50
2015,09,14,00,23,16.10
2015,09,14,00,24,19.30
2015,09,14,00,25,14.50
2015,09,14,00,26,16.10
2015,09,14,00,27,11.30
2015,09,14,00,28,12.90
2015,09,14,00,29,11.30
2015,09,14,00,30,12.90
2015,09,14,00,31,11.30
2015,09,14,00,32,16.10
2015,09,14,00,33,17.70
2015,09,14,00,34,16.10
2015,09,14,00,35,9.60
2015,09,14,00,36,9.60
2015,09,14,00,37,9.60
2015,09,14,00,38,14.50
2015,09,14,00,39,6.40
2015,09,14,00,40,6.40
2015,09,14,00,41,6.40
2015,09,14,00,42,4.80
2015,09,14,00,43,6.40
2015,09,14,00,44,4.80
2015,09,14,00,45,8.10
2015,09,14,00,46,9.60
2015,09,14,00,47,4.80
2015,09,14,00,48,6.40
2015,09,14,00,49,8.10
2015,09,14,00,50,8.10
2015,09,14,00,51,8.10
2015,09,14,00,52,8.10
2015,09,14,00,53,6.40
2015,09,14,00,54,8.10
2015,09,14,00,55,6.40
2015,09,14,00,56,6.40
2015,09,14,00,57,6.40
2015,09,14,00,58,8.10
2015,09,14,00,59,8.10
2015,09,14,01,00,6.40
2015,09,14,01,01,6.40
2015,09,14,01,02,4.80
2015,09,14,01,03,6.40
2015,09,14,01,04,12.90
2015,09,14,01,05,17.70
2015,09,14,01,06,12.90
2015,09,14,01,07,12.90
2015,09,14,01,08,9.60
2015,09,14,01,09,11.30
2015,09,14,01,10,9.60
2015,09,14,01,11,11.30
2015,09,14,01,12,11.30
2015,09,14,01,13,11.30
2015,09,14,01,14,14.50
2015,09,14,01,15,9.60
2015,09,14,01,16,9.60
2015,09,14,01,17,9.60
2015,09,14,01,18,6.40
2015,09,14,01,19,8.10
2015,09,14,01,20,11.30
2015,09,14,01,21,11.30
2015,09,14,01,22,11.30
2015,09,14,01,23,9.60
2015,09,14,01,24,9.60
2015,09,14,01,25,6.40
2015,09,14,01,26,16.10
2015,09,14,01,27,14.50
2015,09,14,01,28,14.50
2015,09,14,01,29,14.50
2015,09,14,01,30,11.30
2015,09,14,01,31,9.60
2015,09,14,01,32,8.10
2015,09,14,01,33,17.70
2015,09,14,01,34,11.30
2015,09,14,01,35,8.10
2015,09,14,01,36,11.30
2015,09,14,01,37,9.60
2015,09,14,01,38,8.10
2015,09,14,01,39,9.60
2015,09,14,01,40,9.60
2015,09,14,01,41,9.60
2015,09,14,01,42,16.10
2015,09,14,01,43,11.30
2015,09,14,01,44,11.30
2015,09,14,01,45,6.40
2015,09,14,01,46,4.80
2015,09,14,01,47,4.80
2015,09,14,01,48,6.40
2015,09,14,01,49,11.30
2015,09,14,01,50,12.90
2015,09,14,01,51,12.90
2015,09,14,01,52,4.80
2015,09,14,01,53,4.80
2015,09,14,01,54,12.90
2015,09,14,01,55,9.60
2015,09,14,01,56,11.30
2015,09,14,01,57,12.90
2015,09,14,01,58,8.10
2015,09,14,01,59,8.10
2015,09,14,02,00,6.40
2015,09,14,02,01,3.20
2015,09,14,02,02,12.90
2015,09,14,02,03,8.10
2015,09,14,02,04,8.10
2015,09,14,02,05,6.40
2015,09,14,02,06,8.10
2015,09,14,02,07,9.60
2015,09,14,02,08,14.50
2015,09,14,02,09,12.90
2015,09,14,02,10,6.40
2015,09,14,02,11,11.30
2015,09,14,02,12,4.80
2015,09,14,02,13,12.90
2015,09,14,02,14,8.10
2015,09,14,02,15,4.80
2015,09,14,02,16,6.40
2015,09,14,02,17,9.60
2015,09,14,02,18,9.60
2015,09,14,02,19,8.10
2015,09,14,02,20,6.40
2015,09,14,02,21,4.80
2015,09,14,02,22,11.30
2015,09,14,02,23,11.30
2015,09,14,02,24,14.50
2015,09,14,02,25,16.10
2015,09,14,02,26,17.70
2015,09,14,02,27,16.10
2015,09,14,02,28,12.90
2015,09,14,02,29,9.60
2015,09,14,02,30,14.50
2015,09,14,02,31,11.30
2015,09,14,02,32,9.60
2015,09,14,02,33,9.60
2015,09,14,02,34,17.70
2015,09,14,02,35,14.50
2015,09,14,02,36,11.30
2015,09,14,02,37,12.90
2015,09,14,02,38,11.30
2015,09,14,02,39,14.50
2015,09,14,02,40,12.90
2015,09,14,02,41,12.90
2015,09,14,02,42,6.40
2015,09,14,02,43,14.50
2015,09,14,02,44,14.50
2015,09,14,02,45,14.50
2015,09,14,02,46,14.50
2015,09,14,02,47,12.90
2015,09,14,02,48,17.70
2015,09,14,02,49,12.90
2015,09,14,02,50,14.50
2015,09,14,02,51,9.60
2015,09,14,02,52,11.30
2015,09,14,02,53,11.30
2015,09,14,02,54,6.40
2015,09,14,02,55,9.60
2015,09,14,02,56,16.10
2015,09,14,02,57,12.90
2015,09,14,02,58,9.60
2015,09,14,02,59,6.40
2015,09,14,03,00,9.60
2015,09,14,03,01,11.30
2015,09,14,03,02,17.70
2015,09,14,03,03,12.90
2015,09,14,03,04,12.90
2015,09,14,03,05,12.90
2015,09,14,03,06,16.10
2015,09,14,03,07,16.10
2015,09,14,03,08,12.90
2015,09,14,03,09,11.30
2015,09,14,03,10,8.10
2015,09,14,03,11,8.10
2015,09,14,03,12,12.90
2015,09,14,03,13,11.30
2015,09,14,03,14,11.30
2015,09,14,03,15,17.70
2015,09,14,03,16,11.30
2015,09,14,03,17,12.90
2015,09,14,03,18,14.50
2015,09,14,03,19,12.90
2015,09,14,03,20,8.10
2015,09,14,03,21,14.50
2015,09,14,03,22,12.90
2015,09,14,03,23,11.30
2015,09,14,03,24,6.40
2015,09,14,03,25,16.10
2015,09,14,03,26,12.90
2015,09,14,03,27,11.30
2015,09,14,03,28,14.50
2015,09,14,03,29,16.10
2015,09,14,03,30,8.10
2015,09,14,03,31,16.10
2015,09,14,03,32,9.60
2015,09,14,03,33,19.30
2015,09,14,03,34,12.90
2015,09,14,03,35,12.90
2015,09,14,03,36,11.30
2015,09,14,03,37,14.50
2015,09,14,03,38,19.30
2015,09,14,03,39,17.70
2015,09,14,03,40,16.10
2015,09,14,03,41,11.30
2015,09,14,03,42,14.50
2015,09,14,03,43,12.90
2015,09,14,03,44,11.30
2015,09,14,03,45,9.60
2015,09,14,03,46,6.40
2015,09,14,03,47,14.50
2015,09,14,03,48,12.90
2015,09,14,03,49,16.10
2015,09,14,03,50,14.50
2015,09,14,03,51,9.60
2015,09,14,03,52,12.90
2015,09,14,03,53,16.10
2015,09,14,03,54,12.90
2015,09,14,03,55,11.30
2015,09,14,03,56,9.60
2015,09,14,03,57,17.70
2015,09,14,03,58,19.30
2015,09,14,03,59,12.90
2015,09,14,04,00,12.90
2015,09,14,04,01,11.30
2015,09,14,04,02,12.90
2015,09,14,04,03,12.90
2015,09,14,05,02,6.40
2015,09,14,05,03,8.10
2015,09,14,05,04,8.10
2015,09,14,05,05,8.10
2015,09,14,05,06,8.10
2015,09,14,05,07,8.10
2015,09,14,05,08,6.40
2015,09,14,05,09,6.40
2015,09,14,05,10,4.80
2015,09,14,05,11,4.80
2015,09,14,05,12,6.40
2015,09,14,05,13,6.40
2015,09,14,05,14,4.80
2015,09,14,05,15,6.40
2015,09,14,05,16,8.10
2015,09,14,05,17,9.60
2015,09,14,05,18,8.10
2015,09,14,05,19,8.10
2015,09,14,05,20,8.10
2015,09,14,05,21,9.60
2015,09,14,05,22,14.50
2015,09,14,05,23,9.60
2015,09,14,05,24,8.10
2015,09,14,05,25,12.90
2015,09,14,05,26,11.30
2015,09,14,05,27,9.60
2015,09,14,05,28,9.60
2015,09,14,05,29,12.90
2015,09,14,05,30,9.60
2015,09,14,05,31,9.60
2015,09,14,05,32,9.60
2015,09,14,05,33,9.60
2015,09,14,05,34,9.60
2015,09,14,05,35,8.10
2015,09,14,05,36,8.10
2015,09,14,05,37,9.60
2015,09,14,05,38,9.60
2015,09,14,05,39,12.90
2015,09,14,05,40,12.90
2015,09,14,05,41,9.60
2015,09,14,05,42,8.10
2015,09,14,05,43,12.90
2015,09,14,05,44,11.30
2015,09,14,05,45,9.60
2015,09,14,05,46,9.60
2015,09,14,05,47,9.60
2015,09,14,05,48,6.40
2015,09,14,05,49,6.40
2015,09,14,05,50,6.40
2015,09,14,05,51,9.60
2015,09,14,05,52,8.10
2015,09,14,05,53,4.80
2015,09,14,05,54,4.80
2015,09,14,05,55,8.10
2015,09,14,05,56,9.60
2015,09,14,05,57,8.10
2015,09,14,05,58,9.60
2015,09,14,05,59,9.60
2015,09,14,06,00,11.30
2015,09,14,06,01,11.30
2015,09,14,06,02,9.60
2015,09,14,06,03,8.10
2015,09,14,06,04,11.30
2015,09,14,06,05,8.10
2015,09,14,06,06,9.60
2015,09,14,06,07,8.10
2015,09,14,06,08,8.10
2015,09,14,06,09,9.60
2015,09,14,06,10,9.60
2015,09,14,06,11,6.40
2015,09,14,06,12,8.10
2015,09,14,06,13,8.10
2015,09,14,06,14,9.60
2015,09,14,06,15,8.10
2015,09,14,06,16,12.90
2015,09,14,06,17,11.30
2015,09,14,06,18,8.10
2015,09,14,06,19,6.40
2015,09,14,06,20,6.40
2015,09,14,06,21,8.10
2015,09,14,06,22,4.80
2015,09,14,06,23,6.40
2015,09,14,06,24,9.60
2015,09,14,06,25,9.60
2015,09,14,06,26,6.40
2015,09,14,06,27,8.10
2015,09,14,06,28,4.80
2015,09,14,06,29,9.60
2015,09,14,06,30,8.10
2015,09,14,06,31,9.60
2015,09,14,06,32,6.40
2015,09,14,06,33,4.80
2015,09,14,06,34,4.80
2015,09,14,06,35,11.30
2015,09,14,06,36,9.60
2015,09,14,06,37,9.60
2015,09,14,06,38,6.40
2015,09,14,06,39,8.10
2015,09,14,06,40,8.10
2015,09,14,06,41,9.60
2015,09,14,06,42,9.60
2015,09,14,06,43,9.60
2015,09,14,06,44,9.60
2015,09,14,06,45,8.10
2015,09,14,06,46,8.10
2015,09,14,06,47,12.90
2015,09,14,06,48,12.90
2015,09,14,06,49,12.90
2015,09,14,06,50,12.90
2015,09,14,06,51,11.30
2015,09,14,06,52,11.30
2015,09,14,06,53,12.90
2015,09,14,06,54,11.30
2015,09,14,06,55,11.30
2015,09,14,06,56,11.30
2015,09,14,06,57,14.50
2015,09,14,06,58,11.30
2015,09,14,06,59,14.50
2015,09,14,07,00,12.90
2015,09,14,07,01,11.30
2015,09,14,07,02,14.50
2015,09,14,07,03,12.90
2015,09,14,07,04,11.30
2015,09,14,07,05,12.90
2015,09,14,07,06,12.90
2015,09,14,07,07,11.30
2015,09,14,07,08,9.60
2015,09,14,07,09,9.60
2015,09,14,07,10,12.90
2015,09,14,07,11,8.10
2015,09,14,07,12,8.10
2015,09,14,07,13,12.90
2015,09,14,07,14,11.30
2015,09,14,07,15,12.90
2015,09,14,07,16,11.30
2015,09,14,07,17,6.40
2015,09,14,07,18,9.60
2015,09,14,07,19,11.30
2015,09,14,07,20,11.30
2015,09,14,07,21,9.60
2015,09,14,07,22,11.30
2015,09,14,07,23,6.40
2015,09,14,07,24,8.10
2015,09,14,07,25,6.40
2015,09,14,07,26,4.80
2015,09,14,07,27,11.30
2015,09,14,07,28,12.90
2015,09,14,07,29,8.10
2015,09,14,07,30,8.10
2015,09,14,07,31,11.30
2015,09,14,07,32,8.10
2015,09,14,07,33,16.10
2015,09,14,07,34,8.10
2015,09,14,07,35,6.40
2015,09,14,07,36,9.60
2015,09,14,07,37,9.60
2015,09,14,07,38,9.60
2015,09,14,07,39,8.10
2015,09,14,07,40,8.10
2015,09,14,07,41,6.40
2015,09,14,07,42,9.60
2015,09,14,07,43,8.10
2015,09,14,07,44,8.10
2015,09,14,07,45,6.40
2015,09,14,07,46,11.30
2015,09,14,07,47,9.60
2015,09,14,07,48,8.10
2015,09,14,07,49,11.30
2015,09,14,07,50,9.60
2015,09,14,07,51,11.30
2015,09,14,07,52,8.10
2015,09,14,07,53,6.40
2015,09,14,07,54,9.60
2015,09,14,07,55,11.30
2015,09,14,07,56,11.30
2015,09,14,07,57,11.30
2015,09,14,07,58,12.90
2015,09,14,07,59,9.60
2015,09,14,08,00,12.90
2015,09,14,08,01,14.50
2015,09,14,08,02,12.90
2015,09,14,08,03,9.60
2015,09,14,08,04,11.30
2015,09,14,08,05,12.90
2015,09,14,08,06,11.30
2015,09,14,08,07,11.30
2015,09,14,08,08,12.90
2015,09,14,08,09,9.60
2015,09,14,08,10,6.40
2015,09,14,08,11,17.70
2015,09,14,08,12,17.70
2015,09,14,08,13,9.60
2015,09,14,08,14,12.90
2015,09,14,08,15,12.90
2015,09,14,08,16,9.60
2015,09,14,08,17,12.90
2015,09,14,08,18,14.50
2015,09,14,08,19,8.10
2015,09,14,08,20,9.60
2015,09,14,08,21,14.50
2015,09,14,08,22,14.50
2015,09,14,08,23,8.10
2015,09,14,08,24,9.60
2015,09,14,08,25,11.30
2015,09,14,08,26,6.40
2015,09,14,08,27,8.10
2015,09,14,08,28,4.80
2015,09,14,08,29,8.10
2015,09,14,08,30,11.30
2015,09,14,08,31,12.90
2015,09,14,08,32,12.90
2015,09,14,08,33,12.90
2015,09,14,08,34,11.30
2015,09,14,08,35,19.30
2015,09,14,08,36,12.90
2015,09,14,08,37,8.10
2015,09,14,08,38,9.60
2015,09,14,08,39,12.90
2015,09,14,08,40,9.60
2015,09,14,08,41,9.60
2015,09,14,08,42,16.10
2015,09,14,08,43,12.90
2015,09,14,08,44,12.90
2015,09,14,08,45,6.40
2015,09,14,08,46,11.30
2015,09,14,08,47,14.50
2015,09,14,08,48,9.60
2015,09,14,08,49,6.40
2015,09,14,08,50,11.30
2015,09,14,08,51,8.10
2015,09,14,08,52,11.30
2015,09,14,08,53,9.60
2015,09,14,08,54,6.40
2015,09,14,08,55,8.10
2015,09,14,08,56,11.30
2015,09,14,08,57,8.10
2015,09,14,08,58,4.80
2015,09,14,08,59,4.80
2015,09,14,09,00,4.80
2015,09,14,09,01,6.40
2015,09,14,09,02,4.80
2015,09,14,09,03,6.40
2015,09,14,09,04,6.40
2015,09,14,09,05,6.40
2015,09,14,09,06,6.40
2015,09,14,09,07,6.40
2015,09,14,09,08,6.40
2015,09,14,09,09,6.40
2015,09,14,09,10,4.80
2015,09,14,09,11,4.80
2015,09,14,09,12,4.80
2015,09,14,09,13,3.20
2015,09,14,09,14,4.80
2015,09,14,09,15,4.80
2015,09,14,09,16,4.80
2015,09,14,09,17,4.80
2015,09,14,09,18,3.20
2015,09,14,09,19,11.30
2015,09,14,09,20,8.10
2015,09,14,09,21,9.60
2015,09,14,09,22,16.10
2015,09,14,09,23,11.30
2015,09,14,09,24,8.10
2015,09,14,09,25,6.40
2015,09,14,09,26,8.10
2015,09,14,09,27,11.30
2015,09,14,09,28,14.50
2015,09,14,09,29,12.90
2015,09,14,09,30,9.60
2015,09,14,09,31,9.60
2015,09,14,09,32,6.40
2015,09,14,09,33,14.50
2015,09,14,09,34,11.30
2015,09,14,09,35,14.50
2015,09,14,09,36,8.10
2015,09,14,09,37,11.30
2015,09,14,09,38,11.30
2015,09,14,09,39,11.30
2015,09,14,09,40,12.90
2015,09,14,09,41,11.30
2015,09,14,09,42,6.40
2015,09,14,09,43,11.30
2015,09,14,09,44,9.60
2015,09,14,09,45,12.90
2015,09,14,09,46,12.90
2015,09,14,09,47,8.10
2015,09,14,09,48,8.10
2015,09,14,09,49,9.60
2015,09,14,09,50,11.30
2015,09,14,09,51,9.60
2015,09,14,09,52,8.10
2015,09,14,09,53,8.10
2015,09,14,09,54,9.60
2015,09,14,09,55,3.20
2015,09,14,09,56,8.10
2015,09,14,09,57,11.30
2015,09,14,09,58,11.30
2015,09,14,09,59,9.60
2015,09,14,10,00,9.60
2015,09,14,10,01,9.60
2015,09,14,10,02,11.30
2015,09,14,10,03,12.90
2015,09,14,10,04,9.60
2015,09,14,10,05,12.90
2015,09,14,10,06,9.60
2015,09,14,10,07,9.60
2015,09,14,10,08,9.60
2015,09,14,10,09,9.60
2015,09,14,10,10,6.40
2015,09,14,10,11,9.60
2015,09,14,10,12,8.10
2015,09,14,10,13,9.60
2015,09,14,10,14,9.60
2015,09,14,10,15,8.10
2015,09,14,10,16,8.10
2015,09,14,10,17,4.80
2015,09,14,10,18,6.40
2015,09,14,10,19,6.40
2015,09,14,10,20,9.60
2015,09,14,10,21,11.30
2015,09,14,10,22,8.10
2015,09,14,10,23,6.40
2015,09,14,10,24,6.40
2015,09,14,10,25,4.80
2015,09,14,10,26,4.80
2015,09,14,10,27,4.80
2015,09,14,10,28,4.80
2015,09,14,10,29,3.20
2015,09,14,10,30,6.40
2015,09,14,10,31,11.30
2015,09,14,10,32,16.10
2015,09,14,10,33,12.90
2015,09,14,10,34,11.30
2015,09,14,10,35,14.50
2015,09,14,10,36,8.10
2015,09,14,10,37,8.10
2015,09,14,10,38,11.30
2015,09,14,10,39,11.30
2015,09,14,10,40,6.40
2015,09,14,10,41,4.80
2015,09,14,10,42,14.50
2015,09,14,10,43,8.10
2015,09,14,10,44,8.10
2015,09,14,10,45,6.40
2015,09,14,10,46,11.30
2015,09,14,10,47,6.40
2015,09,14,10,48,6.40
2015,09,14,10,49,8.10
2015,09,14,10,50,6.40
2015,09,14,10,51,4.80
2015,09,14,10,52,4.80
2015,09,14,10,53,6.40
2015,09,14,10,54,3.20
2015,09,14,10,55,8.10
2015,09,14,10,56,19.30
2015,09,14,10,57,12.90
2015,09,14,10,58,9.60
2015,09,14,10,59,12.90
2015,09,14,11,00,12.90
2015,09,14,11,01,8.10
2015,09,14,11,02,16.10
2015,09,14,11,03,19.30
2015,09,14,11,04,17.70
2015,09,14,11,05,19.30
2015,09,14,11,06,19.30
2015,09,14,11,07,27.40
2015,09,14,11,08,20.90
2015,09,14,11,09,16.10
2015,09,14,11,10,20.90
2015,09,14,11,11,17.70
2015,09,14,11,12,19.30
2015,09,14,11,13,24.20
2015,09,14,11,14,12.90
2015,09,14,11,15,14.50
2015,09,14,11,16,22.50
2015,09,14,11,17,22.50
2015,09,14,11,18,17.70
2015,09,14,11,19,17.70
2015,09,14,11,20,12.90
2015,09,14,11,21,9.60
2015,09,14,11,22,27.40
2015,09,14,11,23,24.20
2015,09,14,11,24,20.90
2015,09,14,11,25,19.30
2015,09,14,11,26,22.50
2015,09,14,11,27,27.40
2015,09,14,11,28,24.20
2015,09,14,11,29,19.30
2015,09,14,11,30,20.90
2015,09,14,11,31,24.20
2015,09,14,11,32,19.30
2015,09,14,11,33,24.20
2015,09,14,11,34,20.90
2015,09,14,11,35,24.20
2015,09,14,11,36,24.20
2015,09,14,11,37,20.90
2015,09,14,11,38,25.70
2015,09,14,11,39,14.50
2015,09,14,11,40,17.70
2015,09,14,11,41,19.30
2015,09,14,11,42,20.90
2015,09,14,11,43,14.50
2015,09,14,11,44,14.50
2015,09,14,11,45,20.90
2015,09,14,11,46,20.90
2015,09,14,11,47,17.70
2015,09,14,11,48,12.90
2015,09,14,11,49,12.90
2015,09,14,11,50,17.70
2015,09,14,11,51,20.90
2015,09,14,11,52,14.50
2015,09,14,11,53,20.90
2015,09,14,11,54,17.70
2015,09,14,11,55,11.30
2015,09,14,11,56,9.60
2015,09,14,11,57,11.30
2015,09,14,11,58,9.60
2015,09,14,11,59,14.50
2015,09,14,12,00,16.10
2015,09,14,12,01,14.50
2015,09,14,12,02,16.10
2015,09,14,12,03,14.50
2015,09,14,12,04,8.10
2015,09,14,12,05,12.90
2015,09,14,12,06,14.50
2015,09,14,12,07,16.10
2015,09,14,12,08,9.60
2015,09,14,12,09,8.10
2015,09,14,12,10,11.30
2015,09,14,12,11,12.90
2015,09,14,12,12,12.90
2015,09,14,12,13,12.90
2015,09,14,12,14,17.70
2015,09,14,12,15,17.70
2015,09,14,12,16,24.20
2015,09,14,12,17,16.10
2015,09,14,12,18,16.10
2015,09,14,12,19,17.70
2015,09,14,12,20,19.30
2015,09,14,12,21,20.90
2015,09,14,12,22,17.70
2015,09,14,12,23,9.60
2015,09,14,12,24,16.10
2015,09,14,12,25,9.60
2015,09,14,12,26,9.60
2015,09,14,12,27,16.10
2015,09,14,12,28,12.90
2015,09,14,12,29,12.90
2015,09,14,12,30,20.90
2015,09,14,12,31,16.10
2015,09,14,12,32,17.70
2015,09,14,12,33,25.70
2015,09,14,12,34,20.90
2015,09,14,12,35,16.10
2015,09,14,12,36,20.90
2015,09,14,12,37,17.70
2015,09,14,12,38,16.10
2015,09,14,12,39,16.10
2015,09,14,12,40,17.70
2015,09,14,12,41,17.70
2015,09,14,12,42,17.70
2015,09,14,12,43,16.10
2015,09,14,12,44,16.10
2015,09,14,12,45,20.90
2015,09,14,12,46,22.50
2015,09,14,12,47,16.10
2015,09,14,12,48,22.50
2015,09,14,12,49,22.50
2015,09,14,12,50,19.30
2015,09,14,12,51,19.30
2015,09,14,12,52,19.30
2015,09,14,12,53,17.70
2015,09,14,12,54,17.70
2015,09,14,12,55,16.10
2015,09,14,12,56,17.70
2015,09,14,12,57,17.70
2015,09,14,12,58,24.20
2015,09,14,12,59,20.90
2015,09,14,13,00,16.10
2015,09,14,13,01,14.50
2015,09,14,13,02,19.30
2015,09,14,13,03,19.30
2015,09,14,13,04,17.70
2015,09,14,13,05,9.60
2015,09,14,13,06,16.10
2015,09,14,13,07,17.70
2015,09,14,13,08,17.70
2015,09,14,13,09,19.30
2015,09,14,13,10,19.30
2015,09,14,13,11,19.30
2015,09,14,13,12,14.50
2015,09,14,13,13,16.10
2015,09,14,13,14,19.30
2015,09,14,13,15,17.70
2015,09,14,13,16,19.30
2015,09,14,13,17,12.90
2015,09,14,13,18,16.10
2015,09,14,13,19,16.10
2015,09,14,13,20,9.60
2015,09,14,13,21,9.60
2015,09,14,13,22,16.10
2015,09,14,13,23,17.70
2015,09,14,13,24,14.50
2015,09,14,13,25,17.70
2015,09,14,13,26,16.10
2015,09,14,13,27,19.30
2015,09,14,13,28,19.30
2015,09,14,13,29,16.10
2015,09,14,13,30,20.90
2015,09,14,13,31,19.30
2015,09,14,13,32,19.30
2015,09,14,13,33,22.50
2015,09,14,13,34,17.70
2015,09,14,13,35,14.50
2015,09,14,13,36,17.70
2015,09,14,13,37,16.10
2015,09,14,13,38,16.10
2015,09,14,13,39,16.10
2015,09,14,13,40,16.10
2015,09,14,13,41,14.50
2015,09,14,13,42,11.30
2015,09,14,13,43,12.90
2015,09,14,13,44,12.90
2015,09,14,13,45,12.90
2015,09,14,13,46,16.10
2015,09,14,13,47,16.10
2015,09,14,13,48,12.90
2015,09,14,13,49,9.60
2015,09,14,13,50,8.10
2015,09,14,13,51,14.50
2015,09,14,13,52,9.60
2015,09,14,13,53,9.60
2015,09,14,13,54,12.90
2015,09,14,13,55,11.30
2015,09,14,13,56,12.90
2015,09,14,13,57,12.90
2015,09,14,13,58,11.30
2015,09,14,13,59,16.10
2015,09,14,14,00,14.50
2015,09,14,14,01,12.90
2015,09,14,14,02,12.90
2015,09,14,14,03,12.90
2015,09,14,14,04,11.30
2015,09,14,14,05,12.90
2015,09,14,14,06,12.90
2015,09,14,14,07,8.10
2015,09,14,14,08,11.30
2015,09,14,14,09,11.30
2015,09,14,14,10,9.60
2015,09,14,14,11,11.30
2015,09,14,14,12,14.50
2015,09,14,14,13,14.50
2015,09,14,14,14,9.60
2015,09,14,14,15,11.30
2015,09,14,14,16,8.10
2015,09,14,14,17,4.80
2015,09,14,14,18,8.10
2015,09,14,14,19,9.60
2015,09,14,14,20,11.30
2015,09,14,14,21,14.50
2015,09,14,14,22,12.90
2015,09,14,14,23,11.30
2015,09,14,14,24,11.30
2015,09,14,14,25,11.30
2015,09,14,14,26,8.10
2015,09,14,14,27,6.40
2015,09,14,14,28,6.40
2015,09,14,14,29,9.60
2015,09,14,14,30,12.90
2015,09,14,14,31,11.30
2015,09,14,14,32,9.60
2015,09,14,14,33,11.30
2015,09,14,14,34,11.30
2015,09,14,14,35,6.40
2015,09,14,14,36,11.30
2015,09,14,14,37,9.60
2015,09,14,14,38,8.10
2015,09,14,14,39,8.10
2015,09,14,14,40,6.40
2015,09,14,14,41,9.60
2015,09,14,14,42,11.30
2015,09,14,14,43,9.60
2015,09,14,14,44,9.60
2015,09,14,14,45,6.40
2015,09,14,14,46,12.90
2015,09,14,14,47,12.90
2015,09,14,14,48,8.10
2015,09,14,14,49,11.30
2015,09,14,14,50,11.30
2015,09,14,14,51,8.10
2015,09,14,14,52,9.60
2015,09,14,14,53,9.60
2015,09,14,14,54,11.30
2015,09,14,14,55,12.90
2015,09,14,14,56,6.40
2015,09,14,14,57,11.30
2015,09,14,14,58,9.60
2015,09,14,14,59,14.50
2015,09,14,15,00,9.60
2015,09,14,15,01,12.90
2015,09,14,15,02,12.90
2015,09,14,15,03,14.50
2015,09,14,15,04,14.50
2015,09,14,15,05,9.60
2015,09,14,15,06,14.50
2015,09,14,15,07,8.10
2015,09,14,15,08,12.90
2015,09,14,15,09,9.60
2015,09,14,15,10,12.90
2015,09,14,15,11,11.30
2015,09,14,15,12,11.30
2015,09,14,15,13,12.90
2015,09,14,15,14,12.90
2015,09,14,15,15,8.10
2015,09,14,15,16,11.30
2015,09,14,15,17,8.10
2015,09,14,15,18,9.60
2015,09,14,15,19,9.60
2015,09,14,15,20,11.30
2015,09,14,15,21,8.10
2015,09,14,15,22,11.30
2015,09,14,15,23,8.10
2015,09,14,15,24,8.10
2015,09,14,15,25,8.10
2015,09,14,15,26,9.60
2015,09,14,15,27,8.10
2015,09,14,15,28,6.40
2015,09,14,15,29,6.40
2015,09,14,15,30,8.10
2015,09,14,15,31,11.30
2015,09,14,15,32,12.90
2015,09,14,15,33,11.30
2015,09,14,15,34,9.60
2015,09,14,15,35,9.60
2015,09,14,15,36,8.10
2015,09,14,15,37,12.90
2015,09,14,15,38,9.60
2015,09,14,15,39,9.60
2015,09,14,15,40,14.50
2015,09,14,15,41,11.30
2015,09,14,15,42,8.10
2015,09,14,15,43,9.60
2015,09,14,15,44,11.30
2015,09,14,15,45,9.60
2015,09,14,15,46,9.60
2015,09,14,15,47,11.30
2015,09,14,15,48,12.90
2015,09,14,15,49,12.90
2015,09,14,15,50,11.30
2015,09,14,15,51,8.10
2015,09,14,15,52,14.50
2015,09,14,15,53,12.90
2015,09,14,15,54,12.90
2015,09,14,15,55,12.90
2015,09,14,15,56,9.60
2015,09,14,15,57,12.90
2015,09,14,15,58,11.30
2015,09,14,15,59,9.60
2015,09,14,16,00,11.30
2015,09,14,16,01,12.90
2015,09,14,16,02,12.90
2015,09,14,16,03,12.90
2015,09,14,16,04,12.90
2015,09,14,16,05,12.90
2015,09,14,16,06,14.50
2015,09,14,16,07,14.50
2015,09,14,16,08,14.50
2015,09,14,16,09,14.50
2015,09,14,16,10,11.30
2015,09,14,16,11,8.10
2015,09,14,16,12,8.10
2015,09,14,16,13,8.10
2015,09,14,16,14,11.30
2015,09,14,16,15,9.60
2015,09,14,16,16,8.10
2015,09,14,16,17,6.40
2015,09,14,16,18,8.10
2015,09,14,16,19,6.40
2015,09,14,16,20,6.40
2015,09,14,16,21,3.20
2015,09,14,16,22,3.20
2015,09,14,16,23,11.30
2015,09,14,16,24,12.90
2015,09,14,16,25,6.40
2015,09,14,16,26,8.10
2015,09,14,16,27,6.40
2015,09,14,16,28,12.90
2015,09,14,16,29,9.60
2015,09,14,16,30,12.90
2015,09,14,16,31,12.90
2015,09,14,16,32,6.40
2015,09,14,16,33,3.20
2015,09,14,16,34,9.60
2015,09,14,16,35,11.30
2015,09,14,16,36,12.90
2015,09,14,16,37,12.90
2015,09,14,16,38,8.10
2015,09,14,16,39,8.10
2015,09,14,16,40,11.30
2015,09,14,16,41,9.60
2015,09,14,16,42,11.30
2015,09,14,16,43,8.10
2015,09,14,16,44,8.10
2015,09,14,16,45,4.80
2015,09,14,16,46,4.80
2015,09,14,16,47,6.40
2015,09,14,16,48,3.20
2015,09,14,16,49,3.20
2015,09,14,16,50,4.80
2015,09,14,16,51,6.40
2015,09,14,16,52,4.80
2015,09,14,16,53,4.80
2015,09,14,16,54,3.20
2015,09,14,16,55,3.20
2015,09,14,16,56,4.80
2015,09,14,16,57,8.10
2015,09,14,16,58,6.40
2015,09,14,16,59,6.40
2015,09,14,17,00,6.40
2015,09,14,17,01,11.30
2015,09,14,17,02,12.90
2015,09,14,17,03,6.40
2015,09,14,17,04,6.40
2015,09,14,17,05,8.10
2015,09,14,17,06,6.40
2015,09,14,17,07,4.80
2015,09,14,17,08,6.40
2015,09,14,17,09,8.10
2015,09,14,17,10,8.10
2015,09,14,17,11,8.10
2015,09,14,17,12,9.60
2015,09,14,17,13,9.60
2015,09,14,17,14,8.10
2015,09,14,17,15,12.90
2015,09,14,17,16,12.90
2015,09,14,17,17,8.10
2015,09,14,17,18,8.10
2015,09,14,17,19,8.10
2015,09,14,17,20,8.10
2015,09,14,17,21,11.30
2015,09,14,17,22,6.40
2015,09,14,17,23,6.40
2015,09,14,17,24,9.60
2015,09,14,17,25,6.40
2015,09,14,17,26,6.40
2015,09,14,17,27,4.80
2015,09,14,17,28,4.80
2015,09,14,17,29,6.40
2015,09,14,17,30,6.40
2015,09,14,17,31,6.40
2015,09,14,17,32,4.80
2015,09,14,17,33,6.40
2015,09,14,17,34,8.10
2015,09,14,17,35,6.40
2015,09,14,17,36,8.10
2015,09,14,17,37,4.80
2015,09,14,17,38,4.80
2015,09,14,17,39,1.60
2015,09,14,17,40,3.20
2015,09,14,17,41,4.80
2015,09,14,17,42,3.20
2015,09,14,17,43,4.80
2015,09,14,17,44,4.80
2015,09,14,17,45,8.10
2015,09,14,17,46,6.40
2015,09,14,17,47,4.80
2015,09,14,17,48,3.20
2015,09,14,17,49,4.80
2015,09,14,17,50,3.20
2015,09,14,17,51,1.60
2015,09,14,17,52,3.20
2015,09,14,17,53,4.80
2015,09,14,17,54,4.80
2015,09,14,17,55,4.80
2015,09,14,17,56,9.60
2015,09,14,17,57,11.30
2015,09,14,17,58,11.30
2015,09,14,17,59,6.40
2015,09,14,18,00,9.60
2015,09,14,18,01,11.30
2015,09,14,18,02,11.30
2015,09,14,18,03,6.40
2015,09,14,18,04,16.10
2015,09,14,18,05,6.40
2015,09,14,18,06,4.80
2015,09,14,18,07,4.80
2015,09,14,18,08,6.40
2015,09,14,18,09,16.10
2015,09,14,18,10,17.70
2015,09,14,18,11,8.10
2015,09,14,18,12,9.60
2015,09,14,18,13,11.30
2015,09,14,18,14,11.30
2015,09,14,18,15,14.50
2015,09,14,18,16,11.30
2015,09,14,18,17,11.30
2015,09,14,18,18,12.90
2015,09,14,18,19,9.60
2015,09,14,18,20,6.40
2015,09,14,18,21,9.60
2015,09,14,18,22,9.60
2015,09,14,18,23,8.10
2015,09,14,18,24,9.60
2015,09,14,18,25,8.10
2015,09,14,18,26,4.80
2015,09,14,18,27,11.30
2015,09,14,18,28,4.80
2015,09,14,18,29,11.30
2015,09,14,18,30,9.60
2015,09,14,18,31,11.30
2015,09,14,18,32,6.40
2015,09,14,18,33,6.40
2015,09,14,18,34,6.40
2015,09,14,18,35,4.80
2015,09,14,18,36,6.40
2015,09,14,18,37,8.10
2015,09,14,18,38,6.40
2015,09,14,18,39,6.40
2015,09,14,18,40,6.40